"read_dt","SO2 (ppb)","flags","PMT voltage (V)","lamp voltage (V)","lamp intensity (Hz)","internal temp (C)","react chamber temp (C)","sample flow (l/min)","pres (mmHg)","SO2 bkg (ppb)","SO2 coefficient"
2015-07-17 00:00:00,1612E-3,5C000000,-0724,0824,12131,027.5,045.4,0.474,727.7,01.19,0.508
2015-07-17 00:01:00,1668E-3,5C000000,-0724,0823,12266,027.5,045.4,0.474,727.7,01.19,0.508
2015-07-17 00:02:00,1634E-3,5C000000,-0724,0823,12361,027.4,045.5,0.474,727.7,01.19,0.508
2015-07-17 00:03:00,1686E-3,5C000000,-0724,0823,12154,027.4,045.5,0.474,727.7,01.19,0.508
2015-07-17 00:04:00,1642E-3,5C000000,-0724,0822,12071,027.4,045.5,0.474,727.7,01.19,0.508
2015-07-17 00:05:00,1624E-3,5C000000,-0724,0822,12306,027.4,045.4,0.474,727.7,01.19,0.508
2015-07-17 00:06:00,1652E-3,5C000000,-0724,0822,12380,027.4,045.4,0.474,727.7,01.19,0.508
2015-07-17 00:07:00,1695E-3,5C000000,-0724,0823,12345,027.4,045.5,0.474,727.7,01.19,0.508
2015-07-17 00:08:00,1627E-3,5C000000,-0724,0823,12281,027.4,045.4,0.474,727.7,01.19,0.508
2015-07-17 00:09:00,1696E-3,5C000000,-0724,0822,12074,027.4,045.4,0.474,727.7,01.19,0.508
2015-07-17 00:10:00,1700E-3,5C000000,-0724,0823,12282,027.4,045.4,0.474,727.7,01.19,0.508
2015-07-17 00:11:00,1770E-3,5C000000,-0724,0823,12197,027.4,045.4,0.474,727.6,01.19,0.508
2015-07-17 00:12:00,1715E-3,5C000000,-0724,0822,12199,027.4,045.4,0.474,727.7,01.19,0.508
2015-07-17 00:13:00,1638E-3,5C000000,-0724,0823,12200,027.4,045.4,0.474,727.7,01.19,0.508
2015-07-17 00:14:00,1572E-3,5C000000,-0724,0823,12386,027.4,045.5,0.474,727.7,01.19,0.508
2015-07-17 00:15:00,1658E-3,5C000000,-0724,0824,12415,027.4,045.5,0.474,727.7,01.19,0.508
2015-07-17 00:16:00,1613E-3,5C000000,-0724,0823,12194,027.4,045.4,0.474,727.7,01.19,0.508
2015-07-17 00:17:00,1672E-3,5C000000,-0724,0823,12236,027.4,045.4,0.474,727.7,01.19,0.508
2015-07-17 00:18:00,1617E-3,5C000000,-0724,0822,12347,027.4,045.5,0.474,727.7,01.19,0.508
2015-07-17 00:19:00,1669E-3,5C000000,-0724,0823,12259,027.4,045.4,0.474,727.7,01.19,0.508
2015-07-17 00:20:00,1641E-3,5C000000,-0724,0823,12317,027.4,045.4,0.474,727.7,01.19,0.508
2015-07-17 00:21:00,1650E-3,5C000000,-0724,0824,12319,027.4,045.4,0.474,727.7,01.19,0.508
2015-07-17 00:22:00,1653E-3,5C000000,-0724,0822,12269,027.4,045.4,0.475,727.7,01.19,0.508
2015-07-17 00:23:00,1616E-3,5C000000,-0724,0823,12077,027.4,045.4,0.475,727.7,01.19,0.508
2015-07-17 00:24:00,1744E-3,5C000000,-0724,0824,12196,027.4,045.4,0.474,727.7,01.19,0.508
2015-07-17 00:25:00,1651E-3,5C000000,-0724,0823,12324,027.4,045.4,0.474,727.7,01.19,0.508
2015-07-17 00:26:00,1647E-3,5C000000,-0724,0823,12290,027.3,045.4,0.474,727.7,01.19,0.508
2015-07-17 00:27:00,1559E-3,5C000000,-0724,0823,12399,027.3,045.4,0.474,727.7,01.19,0.508
2015-07-17 00:28:00,1583E-3,5C000000,-0724,0823,12275,027.3,045.4,0.475,727.7,01.19,0.508
2015-07-17 00:29:00,1738E-3,5C000000,-0724,0823,12296,027.2,045.4,0.475,727.6,01.19,0.508
2015-07-17 00:30:00,1748E-3,5C000000,-0724,0822,12279,027.2,045.4,0.475,727.7,01.19,0.508
2015-07-17 00:31:00,1830E-3,5C000000,-0724,0822,12255,027.2,045.4,0.475,727.7,01.19,0.508
2015-07-17 00:32:00,1607E-3,5C000000,-0724,0823,12268,027.2,045.4,0.475,727.7,01.19,0.508
2015-07-17 00:33:00,1799E-3,5C000000,-0724,0823,12210,027.1,045.4,0.475,727.8,01.19,0.508
2015-07-17 00:34:00,1688E-3,5C000000,-0724,0824,12346,027.1,045.4,0.475,727.8,01.19,0.508
2015-07-17 00:35:00,1722E-3,5C000000,-0724,0823,12242,027.1,045.5,0.475,727.7,01.19,0.508
2015-07-17 00:36:00,1658E-3,5C000000,-0724,0823,12239,027.1,045.4,0.475,727.7,01.19,0.508
2015-07-17 00:37:00,1516E-3,5C000000,-0724,0823,12323,027.0,045.4,0.475,727.7,01.19,0.508
2015-07-17 00:38:00,1783E-3,5C000000,-0724,0823,12345,027.0,045.4,0.475,727.7,01.19,0.508
2015-07-17 00:39:00,1660E-3,5C000000,-0724,0823,12149,027.0,045.4,0.475,727.7,01.19,0.508
2015-07-17 00:40:00,1564E-3,5C000000,-0724,0823,12313,027.0,045.4,0.475,727.7,01.19,0.508
2015-07-17 00:41:00,1682E-3,5C000000,-0724,0823,12259,027.0,045.5,0.475,727.7,01.19,0.508
2015-07-17 00:42:00,1548E-3,5C000000,-0724,0823,12236,026.9,045.4,0.475,727.7,01.19,0.508
2015-07-17 00:43:00,1789E-3,5C000000,-0724,0823,12225,026.9,045.4,0.475,727.7,01.19,0.508
2015-07-17 00:44:00,1801E-3,5C000000,-0724,0823,12241,026.9,045.4,0.475,727.7,01.19,0.508
2015-07-17 00:45:00,1768E-3,5C000000,-0724,0822,12342,026.9,045.4,0.475,727.7,01.19,0.508
2015-07-17 00:46:00,1692E-3,5C000000,-0724,0822,12302,026.9,045.4,0.475,727.7,01.19,0.508
2015-07-17 00:47:00,1611E-3,5C000000,-0724,0822,12221,026.9,045.4,0.475,727.7,01.19,0.508
2015-07-17 00:48:00,1686E-3,5C000000,-0724,0822,12091,026.9,045.4,0.475,727.7,01.19,0.508
2015-07-17 00:49:00,1811E-3,5C000000,-0724,0823,12265,026.8,045.4,0.475,727.7,01.19,0.508
2015-07-17 00:50:00,1599E-3,5C000000,-0724,0821,12242,026.8,045.4,0.475,727.7,01.19,0.508
2015-07-17 00:51:00,1602E-3,5C000000,-0724,0822,12226,026.8,045.4,0.475,727.7,01.19,0.508
2015-07-17 00:52:00,1647E-3,5C000000,-0724,0822,12225,026.8,045.4,0.475,727.7,01.19,0.508
2015-07-17 00:53:00,1572E-3,5C000000,-0724,0823,12278,026.8,045.4,0.475,727.7,01.19,0.508
2015-07-17 00:54:00,1623E-3,5C000000,-0724,0823,12166,026.7,045.4,0.475,727.7,01.19,0.508
2015-07-17 00:55:00,1655E-3,5C000000,-0724,0822,12290,026.7,045.4,0.475,727.7,01.19,0.508
2015-07-17 00:56:00,1639E-3,5C000000,-0724,0822,12219,026.8,045.4,0.475,727.7,01.19,0.508
2015-07-17 00:57:00,1633E-3,5C000000,-0724,0823,12424,026.8,045.4,0.475,727.7,01.19,0.508
2015-07-17 00:58:00,1544E-3,5C000000,-0724,0822,12143,026.7,045.4,0.475,727.7,01.19,0.508
2015-07-17 00:59:00,1693E-3,5C000000,-0724,0822,12279,026.7,045.4,0.475,727.7,01.19,0.508
2015-07-17 01:00:00,1641E-3,5C000000,-0724,0823,12221,026.7,045.4,0.475,727.7,01.19,0.508
2015-07-17 01:01:00,1798E-3,5C000000,-0724,0823,12257,026.7,045.4,0.475,727.7,01.19,0.508
2015-07-17 01:02:00,1632E-3,5C000000,-0724,0823,12375,026.7,045.4,0.475,727.7,01.19,0.508
2015-07-17 01:03:00,1605E-3,5C000000,-0724,0822,12301,026.7,045.4,0.475,727.7,01.19,0.508
2015-07-17 01:04:00,1618E-3,5C000000,-0724,0823,12288,026.7,045.4,0.475,727.7,01.19,0.508
2015-07-17 01:05:00,1666E-3,5C000000,-0724,0823,12324,026.7,045.4,0.475,727.7,01.19,0.508
2015-07-17 01:06:00,1646E-3,5C000000,-0724,0823,12239,026.7,045.4,0.475,727.7,01.19,0.508
2015-07-17 01:07:00,1733E-3,5C000000,-0724,0823,12292,026.7,045.4,0.476,727.7,01.19,0.508
2015-07-17 01:08:00,1759E-3,5C000000,-0724,0823,12234,026.7,045.4,0.475,727.7,01.19,0.508
2015-07-17 01:09:00,1769E-3,5C000000,-0724,0823,12280,026.6,045.4,0.475,727.6,01.19,0.508
2015-07-17 01:10:00,1633E-3,5C000000,-0724,0822,12301,026.6,045.4,0.475,727.6,01.19,0.508
2015-07-17 01:11:00,1706E-3,5C000000,-0724,0823,12320,026.6,045.4,0.475,727.6,01.19,0.508
2015-07-17 01:12:00,1726E-3,5C000000,-0724,0823,12349,026.6,045.4,0.475,727.6,01.19,0.508
2015-07-17 01:13:00,1726E-3,5C000000,-0724,0823,12176,026.6,045.4,0.475,727.6,01.19,0.508
2015-07-17 01:14:00,1758E-3,5C000000,-0724,0822,12073,026.6,045.4,0.475,727.7,01.19,0.508
2015-07-17 01:15:00,1706E-3,5C000000,-0724,0823,12261,026.6,045.4,0.475,727.7,01.19,0.508
2015-07-17 01:16:00,1619E-3,5C000000,-0724,0823,12330,026.6,045.4,0.475,727.7,01.19,0.508
2015-07-17 01:17:00,1500E-3,5C000000,-0724,0822,12218,026.6,045.4,0.475,727.7,01.19,0.508
2015-07-17 01:18:00,1660E-3,5C000000,-0724,0823,12194,026.6,045.4,0.476,727.7,01.19,0.508
2015-07-17 01:19:00,1678E-3,5C000000,-0724,0823,12306,026.6,045.4,0.475,727.7,01.19,0.508
2015-07-17 01:20:00,1689E-3,5C000000,-0724,0823,12213,026.6,045.4,0.475,727.6,01.19,0.508
2015-07-17 01:21:00,1607E-3,5C000000,-0724,0823,12143,026.6,045.4,0.475,727.6,01.19,0.508
2015-07-17 01:22:00,1716E-3,5C000000,-0724,0822,12285,026.6,045.4,0.475,727.6,01.19,0.508
2015-07-17 01:23:00,1733E-3,5C000000,-0724,0823,12253,026.6,045.4,0.475,727.6,01.19,0.508
2015-07-17 01:24:00,1612E-3,5C000000,-0724,0823,12174,026.6,045.4,0.476,727.6,01.19,0.508
2015-07-17 01:25:00,1721E-3,5C000000,-0724,0823,12247,026.5,045.4,0.475,727.6,01.19,0.508
2015-07-17 01:26:00,1589E-3,5C000000,-0724,0823,12385,026.6,045.4,0.475,727.6,01.19,0.508
2015-07-17 01:27:00,1600E-3,5C000000,-0724,0822,12318,026.6,045.4,0.475,727.5,01.19,0.508
2015-07-17 01:28:00,1620E-3,5C000000,-0724,0823,12338,026.5,045.4,0.475,727.5,01.19,0.508
2015-07-17 01:29:00,1653E-3,5C000000,-0724,0823,12233,026.5,045.4,0.476,727.5,01.19,0.508
2015-07-17 01:30:00,1642E-3,5C000000,-0724,0823,12201,026.5,045.4,0.475,727.5,01.19,0.508
2015-07-17 01:31:00,1757E-3,5C000000,-0724,0823,12243,026.5,045.4,0.475,727.5,01.19,0.508
2015-07-17 01:32:00,1758E-3,5C000000,-0724,0823,12278,026.5,045.4,0.475,727.5,01.19,0.508
2015-07-17 01:33:00,1641E-3,5C000000,-0724,0822,12223,026.5,045.4,0.475,727.4,01.19,0.508
2015-07-17 01:34:00,1680E-3,5C000000,-0724,0823,12270,026.5,045.4,0.475,727.5,01.19,0.508
2015-07-17 01:35:00,1763E-3,5C000000,-0724,0823,12303,026.5,045.4,0.475,727.5,01.19,0.508
2015-07-17 01:36:00,1676E-3,5C000000,-0724,0822,12421,026.5,045.4,0.475,727.5,01.19,0.508
2015-07-17 01:37:00,1664E-3,5C000000,-0724,0823,12209,026.5,045.4,0.475,727.5,01.19,0.508
2015-07-17 01:38:00,1728E-3,5C000000,-0724,0824,12292,026.5,045.4,0.475,727.4,01.19,0.508
2015-07-17 01:39:00,1668E-3,5C000000,-0724,0823,12200,026.5,045.4,0.476,727.4,01.19,0.508
2015-07-17 01:40:00,1724E-3,5C000000,-0724,0822,12228,026.5,045.4,0.475,727.4,01.19,0.508
2015-07-17 01:41:00,1727E-3,5C000000,-0724,0824,12201,026.5,045.4,0.475,727.4,01.19,0.508
2015-07-17 01:42:00,1750E-3,5C000000,-0724,0823,12234,026.5,045.4,0.475,727.4,01.19,0.508
2015-07-17 01:43:00,1545E-3,5C000000,-0724,0822,12245,026.5,045.4,0.475,727.4,01.19,0.508
2015-07-17 01:44:00,1667E-3,5C000000,-0724,0822,12102,026.5,045.4,0.476,727.4,01.19,0.508
2015-07-17 01:45:00,1640E-3,5C000000,-0724,0822,12091,026.5,045.4,0.475,727.4,01.19,0.508
2015-07-17 01:46:00,1642E-3,5C000000,-0724,0823,12236,026.5,045.4,0.475,727.4,01.19,0.508
2015-07-17 01:47:00,1652E-3,5C000000,-0724,0824,12279,026.5,045.4,0.475,727.4,01.19,0.508
2015-07-17 01:48:00,1720E-3,5C000000,-0724,0823,12235,026.5,045.4,0.475,727.4,01.19,0.508
2015-07-17 01:49:00,1739E-3,5C000000,-0724,0823,12298,026.5,045.4,0.476,727.4,01.19,0.508
2015-07-17 01:50:00,1582E-3,5C000000,-0724,0823,12229,026.5,045.4,0.475,727.3,01.19,0.508
2015-07-17 01:51:00,1635E-3,5C000000,-0724,0822,12152,026.5,045.4,0.475,727.3,01.19,0.508
2015-07-17 01:52:00,1647E-3,5C000000,-0724,0823,12311,026.5,045.4,0.475,727.3,01.19,0.508
2015-07-17 01:53:00,1724E-3,5C000000,-0724,0823,12219,026.5,045.4,0.475,727.3,01.19,0.508
2015-07-17 01:54:00,1561E-3,5C000000,-0724,0823,12370,026.5,045.4,0.475,727.4,01.19,0.508
2015-07-17 01:55:00,1561E-3,5C000000,-0724,0822,12309,026.5,045.4,0.475,727.3,01.19,0.508
2015-07-17 01:56:00,1719E-3,5C000000,-0724,0823,12318,026.5,045.4,0.475,727.3,01.19,0.508
2015-07-17 01:57:00,1625E-3,5C000000,-0724,0823,12249,026.5,045.4,0.475,727.3,01.19,0.508
2015-07-17 01:58:00,1650E-3,5C000000,-0724,0823,12431,026.5,045.4,0.476,727.3,01.19,0.508
2015-07-17 01:59:00,1619E-3,5C000000,-0724,0822,12432,026.5,045.4,0.475,727.3,01.19,0.508
2015-07-17 02:00:00,1674E-3,5C000000,-0724,0823,12204,026.4,045.4,0.475,727.3,01.19,0.508
2015-07-17 02:01:00,1634E-3,5C000000,-0724,0823,12287,026.5,045.4,0.475,727.3,01.19,0.508
2015-07-17 02:02:00,1517E-3,5C000000,-0724,0823,12133,026.5,045.4,0.475,727.3,01.19,0.508
2015-07-17 02:03:00,1599E-3,5C000000,-0724,0823,12010,026.5,045.4,0.476,727.3,01.19,0.508
2015-07-17 02:04:00,1704E-3,5C000000,-0724,0823,12324,026.5,045.4,0.475,727.3,01.19,0.508
2015-07-17 02:05:00,1729E-3,5C000000,-0724,0823,12372,026.5,045.4,0.475,727.2,01.19,0.508
2015-07-17 02:06:00,1670E-3,5C000000,-0724,0822,12383,026.4,045.4,0.475,727.2,01.19,0.508
2015-07-17 02:07:00,1643E-3,5C000000,-0724,0823,12342,026.5,045.4,0.476,727.2,01.19,0.508
2015-07-17 02:08:00,1644E-3,5C000000,-0724,0823,12298,026.5,045.4,0.475,727.2,01.19,0.508
2015-07-17 02:09:00,1655E-3,5C000000,-0724,0822,12162,026.5,045.4,0.475,727.1,01.19,0.508
2015-07-17 02:10:00,1705E-3,5C000000,-0724,0823,12241,026.5,045.4,0.475,727.1,01.19,0.508
2015-07-17 02:11:00,1593E-3,5C000000,-0724,0822,12290,026.4,045.4,0.475,727.1,01.19,0.508
2015-07-17 02:12:00,1751E-3,5C000000,-0724,0824,12290,026.4,045.4,0.475,727.1,01.19,0.508
2015-07-17 02:13:00,1635E-3,5C000000,-0724,0823,12294,026.5,045.4,0.475,727.1,01.19,0.508
2015-07-17 02:14:00,1671E-3,5C000000,-0724,0823,12414,026.4,045.4,0.475,727.1,01.19,0.508
2015-07-17 02:15:00,1628E-3,5C000000,-0724,0823,12194,026.4,045.4,0.475,727.1,01.19,0.508
2015-07-17 02:16:00,1701E-3,5C000000,-0724,0822,12286,026.4,045.4,0.476,727.1,01.19,0.508
2015-07-17 02:17:00,1732E-3,5C000000,-0724,0823,12311,026.4,045.4,0.475,727.1,01.19,0.508
2015-07-17 02:18:00,1608E-3,5C000000,-0724,0823,12200,026.4,045.4,0.475,727.2,01.19,0.508
2015-07-17 02:19:00,1648E-3,5C000000,-0724,0823,12415,026.5,045.4,0.475,727.2,01.19,0.508
2015-07-17 02:20:00,1687E-3,5C000000,-0724,0823,12357,026.4,045.4,0.475,727.2,01.19,0.508
2015-07-17 02:21:00,1621E-3,5C000000,-0724,0823,12364,026.4,045.4,0.476,727.1,01.19,0.508
2015-07-17 02:22:00,1666E-3,5C000000,-0724,0823,12352,026.4,045.4,0.475,727.1,01.19,0.508
2015-07-17 02:23:00,1742E-3,5C000000,-0724,0823,12302,026.5,045.4,0.475,727.2,01.19,0.508
2015-07-17 02:24:00,1577E-3,5C000000,-0724,0823,12261,026.4,045.4,0.475,727.2,01.19,0.508
2015-07-17 02:25:00,1589E-3,5C000000,-0724,0823,12310,026.4,045.4,0.476,727.2,01.19,0.508
2015-07-17 02:26:00,1551E-3,5C000000,-0724,0823,12223,026.5,045.4,0.475,727.2,01.19,0.508
2015-07-17 02:27:00,1642E-3,5C000000,-0724,0822,12262,026.4,045.4,0.475,727.2,01.19,0.508
2015-07-17 02:28:00,1550E-3,5C000000,-0724,0822,12373,026.4,045.4,0.475,727.2,01.19,0.508
2015-07-17 02:29:00,1709E-3,5C000000,-0724,0822,12213,026.5,045.4,0.476,727.2,01.19,0.508
2015-07-17 02:30:00,1601E-3,5C000000,-0724,0822,12234,026.4,045.4,0.476,727.2,01.19,0.508
2015-07-17 02:31:00,1795E-3,5C000000,-0724,0824,12392,026.5,045.5,0.475,727.2,01.19,0.508
2015-07-17 02:32:00,1609E-3,5C000000,-0724,0822,12268,026.4,045.4,0.475,727.1,01.19,0.508
2015-07-17 02:33:00,1662E-3,5C000000,-0724,0822,12232,026.4,045.4,0.475,727.1,01.19,0.508
2015-07-17 02:34:00,1773E-3,5C000000,-0724,0823,12235,026.4,045.4,0.475,727.2,01.19,0.508
2015-07-17 02:35:00,1698E-3,5C000000,-0724,0823,12325,026.4,045.4,0.475,727.2,01.19,0.508
2015-07-17 02:36:00,1594E-3,5C000000,-0724,0823,12192,026.4,045.4,0.475,727.2,01.19,0.508
2015-07-17 02:37:00,1613E-3,5C000000,-0724,0823,12071,026.4,045.4,0.475,727.2,01.19,0.508
2015-07-17 02:38:00,1648E-3,5C000000,-0724,0823,12282,026.4,045.4,0.475,727.2,01.19,0.508
2015-07-17 02:39:00,1617E-3,5C000000,-0724,0823,12256,026.4,045.4,0.476,727.2,01.19,0.508
2015-07-17 02:40:00,1546E-3,5C000000,-0724,0823,12304,026.4,045.4,0.475,727.3,01.19,0.508
2015-07-17 02:41:00,1703E-3,5C000000,-0724,0823,12247,026.4,045.4,0.475,727.3,01.19,0.508
2015-07-17 02:42:00,1754E-3,5C000000,-0724,0823,12281,026.4,045.4,0.475,727.3,01.19,0.508
2015-07-17 02:43:00,1632E-3,5C000000,-0724,0823,12307,026.4,045.4,0.476,727.2,01.19,0.508
2015-07-17 02:44:00,1589E-3,5C000000,-0724,0823,12338,026.4,045.4,0.475,727.2,01.19,0.508
2015-07-17 02:45:00,1762E-3,5C000000,-0724,0822,12149,026.4,045.4,0.475,727.2,01.19,0.508
2015-07-17 02:46:00,1771E-3,5C000000,-0724,0823,12285,026.4,045.4,0.475,727.2,01.19,0.508
2015-07-17 02:47:00,1729E-3,5C000000,-0724,0822,12304,026.4,045.4,0.475,727.2,01.19,0.508
2015-07-17 02:48:00,1633E-3,5C000000,-0724,0823,12272,026.4,045.4,0.476,727.2,01.19,0.508
2015-07-17 02:49:00,1551E-3,5C000000,-0724,0823,12277,026.4,045.4,0.475,727.2,01.19,0.508
2015-07-17 02:50:00,1416E-3,5C000000,-0724,0823,12307,026.4,045.4,0.475,727.3,01.19,0.508
2015-07-17 02:51:00,1736E-3,5C000000,-0724,0823,12401,026.4,045.4,0.475,727.3,01.19,0.508
2015-07-17 02:52:00,1508E-3,5C000000,-0724,0823,12179,026.4,045.4,0.475,727.3,01.19,0.508
2015-07-17 02:53:00,1781E-3,5C000000,-0724,0823,12261,026.4,045.4,0.476,727.3,01.19,0.508
2015-07-17 02:54:00,1682E-3,5C000000,-0724,0823,12362,026.4,045.4,0.475,727.3,01.19,0.508
2015-07-17 02:55:00,1676E-3,5C000000,-0724,0823,12221,026.4,045.4,0.475,727.2,01.19,0.508
2015-07-17 02:56:00,1713E-3,5C000000,-0724,0823,12131,026.4,045.5,0.475,727.2,01.19,0.508
2015-07-17 02:57:00,1576E-3,5C000000,-0724,0822,12247,026.4,045.4,0.475,727.2,01.19,0.508
2015-07-17 02:58:00,1736E-3,5C000000,-0724,0823,12273,026.4,045.4,0.476,727.2,01.19,0.508
2015-07-17 02:59:00,1742E-3,5C000000,-0724,0823,12280,026.4,045.4,0.475,727.1,01.19,0.508
2015-07-17 03:00:00,1559E-3,5C000000,-0724,0823,12303,026.4,045.4,0.475,727.1,01.19,0.508
2015-07-17 03:01:00,1742E-3,5C000000,-0724,0823,12291,026.4,045.4,0.475,727.2,01.19,0.508
2015-07-17 03:02:00,1559E-3,5C000000,-0724,0823,12245,026.4,045.4,0.476,727.2,01.19,0.508
2015-07-17 03:03:00,1636E-3,5C000000,-0724,0823,12155,026.4,045.4,0.475,727.2,01.19,0.508
2015-07-17 03:04:00,1654E-3,5C000000,-0724,0823,12257,026.4,045.4,0.475,727.2,01.19,0.508
2015-07-17 03:05:00,1648E-3,5C000000,-0724,0823,12135,026.4,045.4,0.475,727.1,01.19,0.508
2015-07-17 03:06:00,1607E-3,5C000000,-0724,0823,12205,026.4,045.4,0.475,727.1,01.19,0.508
2015-07-17 03:07:00,1591E-3,5C000000,-0724,0823,12295,026.4,045.4,0.476,727.2,01.19,0.508
2015-07-17 03:08:00,1653E-3,5C000000,-0724,0823,12272,026.4,045.4,0.475,727.2,01.19,0.508
2015-07-17 03:09:00,1637E-3,5C000000,-0724,0823,12200,026.4,045.4,0.475,727.2,01.19,0.508
2015-07-17 03:10:00,1724E-3,5C000000,-0724,0822,12305,026.4,045.4,0.475,727.2,01.19,0.508
2015-07-17 03:11:00,1599E-3,5C000000,-0724,0823,12261,026.4,045.4,0.475,727.1,01.19,0.508
2015-07-17 03:12:00,1711E-3,5C000000,-0724,0822,12284,026.4,045.4,0.475,727.1,01.19,0.508
2015-07-17 03:13:00,1662E-3,5C000000,-0724,0823,12300,026.4,045.4,0.475,727.1,01.19,0.508
2015-07-17 03:14:00,1736E-3,5C000000,-0724,0823,12261,026.4,045.4,0.475,727.1,01.19,0.508
2015-07-17 03:15:00,1658E-3,5C000000,-0724,0823,12251,026.4,045.4,0.475,727.1,01.19,0.508
2015-07-17 03:16:00,1681E-3,5C000000,-0724,0823,12252,026.4,045.4,0.475,727.1,01.19,0.508
2015-07-17 03:17:00,1587E-3,5C000000,-0724,0823,12186,026.4,045.4,0.475,727.1,01.19,0.508
2015-07-17 03:18:00,1486E-3,5C000000,-0724,0823,12294,026.4,045.4,0.475,727.1,01.19,0.508
2015-07-17 03:19:00,1552E-3,5C000000,-0724,0823,12213,026.4,045.4,0.475,727.1,01.19,0.508
2015-07-17 03:20:00,1642E-3,5C000000,-0724,0823,12209,026.4,045.4,0.475,727.1,01.19,0.508
2015-07-17 03:21:00,1616E-3,5C000000,-0724,0823,12343,026.4,045.4,0.475,727.1,01.19,0.508
2015-07-17 03:22:00,1628E-3,5C000000,-0724,0823,12175,026.4,045.4,0.475,727.1,01.19,0.508
2015-07-17 03:23:00,1768E-3,5C000000,-0724,0823,12471,026.4,045.4,0.475,727.1,01.19,0.508
2015-07-17 03:24:00,1709E-3,5C000000,-0724,0823,12228,026.4,045.4,0.475,727.1,01.19,0.508
2015-07-17 03:25:00,1685E-3,5C000000,-0724,0822,12362,026.4,045.4,0.476,727.1,01.19,0.508
2015-07-17 03:26:00,1653E-3,5C000000,-0724,0822,12269,026.4,045.4,0.475,727.2,01.19,0.508
2015-07-17 03:27:00,1701E-3,5C000000,-0724,0823,12315,026.4,045.4,0.475,727.2,01.19,0.508
2015-07-17 03:28:00,1578E-3,5C000000,-0724,0822,12267,026.4,045.4,0.475,727.2,01.19,0.508
2015-07-17 03:29:00,1698E-3,5C000000,-0724,0823,12286,026.4,045.4,0.475,727.1,01.19,0.508
2015-07-17 03:30:00,1643E-3,5C000000,-0724,0822,12235,026.4,045.4,0.475,727.1,01.19,0.508
2015-07-17 03:31:00,1691E-3,5C000000,-0724,0823,12276,026.4,045.4,0.475,727.1,01.19,0.508
2015-07-17 03:32:00,1614E-3,5C000000,-0724,0823,12337,026.4,045.4,0.475,727.1,01.19,0.508
2015-07-17 03:33:00,1637E-3,5C000000,-0724,0823,12267,026.4,045.4,0.475,727.1,01.19,0.508
2015-07-17 03:34:00,1766E-3,5C000000,-0724,0822,12230,026.4,045.4,0.475,727.1,01.19,0.508
2015-07-17 03:35:00,1657E-3,5C000000,-0724,0823,12368,026.4,045.4,0.475,727.1,01.19,0.508
2015-07-17 03:36:00,1704E-3,5C000000,-0724,0823,12027,026.4,045.4,0.475,727.1,01.19,0.508
2015-07-17 03:37:00,1656E-3,5C000000,-0724,0823,12348,026.5,045.4,0.475,727.1,01.19,0.508
2015-07-17 03:38:00,1571E-3,5C000000,-0724,0823,12284,026.5,045.4,0.475,727.1,01.19,0.508
2015-07-17 03:39:00,1661E-3,5C000000,-0724,0823,12347,026.4,045.4,0.475,727.1,01.19,0.508
2015-07-17 03:40:00,1755E-3,5C000000,-0724,0822,12234,026.4,045.4,0.475,727.1,01.19,0.508
2015-07-17 03:41:00,1710E-3,5C000000,-0724,0823,12224,026.4,045.4,0.475,727.1,01.19,0.508
2015-07-17 03:42:00,1614E-3,5C000000,-0724,0823,12236,026.4,045.4,0.475,727.1,01.19,0.508
2015-07-17 03:43:00,1773E-3,5C000000,-0724,0823,12336,026.4,045.4,0.475,727.1,01.19,0.508
2015-07-17 03:44:00,1722E-3,5C000000,-0724,0822,12294,026.4,045.4,0.475,727.0,01.19,0.508
2015-07-17 03:45:00,1669E-3,5C000000,-0724,0823,12324,026.4,045.4,0.475,727.0,01.19,0.508
2015-07-17 03:46:00,1799E-3,5C000000,-0724,0823,12198,026.4,045.4,0.475,727.0,01.19,0.508
2015-07-17 03:47:00,1630E-3,5C000000,-0724,0822,12226,026.5,045.4,0.475,727.1,01.19,0.508
2015-07-17 03:48:00,1616E-3,5C000000,-0724,0823,12258,026.4,045.4,0.475,727.1,01.19,0.508
2015-07-17 03:49:00,1682E-3,5C000000,-0724,0822,12252,026.4,045.4,0.475,727.1,01.19,0.508
2015-07-17 03:50:00,1616E-3,5C000000,-0724,0823,12260,026.4,045.4,0.475,727.1,01.19,0.508
2015-07-17 03:51:00,1594E-3,5C000000,-0724,0822,12222,026.4,045.4,0.475,727.1,01.19,0.508
2015-07-17 03:52:00,1719E-3,5C000000,-0724,0823,12234,026.4,045.4,0.475,727.0,01.19,0.508
2015-07-17 03:53:00,1510E-3,5C000000,-0724,0822,12233,026.4,045.4,0.475,727.0,01.19,0.508
2015-07-17 03:54:00,1531E-3,5C000000,-0724,0823,12200,026.4,045.4,0.475,727.1,01.19,0.508
2015-07-17 03:55:00,1743E-3,5C000000,-0724,0823,12168,026.4,045.4,0.475,727.1,01.19,0.508
2015-07-17 03:56:00,1758E-3,5C000000,-0724,0823,12260,026.4,045.4,0.475,727.1,01.19,0.508
2015-07-17 03:57:00,1634E-3,5C000000,-0724,0822,12142,026.4,045.4,0.475,727.0,01.19,0.508
2015-07-17 03:58:00,1613E-3,5C000000,-0724,0823,12126,026.4,045.4,0.475,727.0,01.19,0.508
2015-07-17 03:59:00,1777E-3,5C000000,-0724,0823,12208,026.4,045.4,0.475,727.0,01.19,0.508
2015-07-17 04:00:00,1681E-3,5C000000,-0724,0823,12289,026.5,045.4,0.475,727.0,01.19,0.508
2015-07-17 04:01:00,1630E-3,5C000000,-0724,0823,12090,026.4,045.4,0.475,727.0,01.19,0.508
2015-07-17 04:02:00,1630E-3,5C000000,-0724,0823,12241,026.4,045.4,0.475,726.9,01.19,0.508
2015-07-17 04:03:00,1767E-3,5C000000,-0724,0823,12309,026.4,045.4,0.475,727.0,01.19,0.508
2015-07-17 04:04:00,1637E-3,5C000000,-0724,0823,12275,026.4,045.4,0.475,727.0,01.19,0.508
2015-07-17 04:05:00,1628E-3,5C000000,-0724,0823,12338,026.4,045.4,0.475,727.0,01.19,0.508
2015-07-17 04:06:00,1578E-3,5C000000,-0724,0823,12226,026.4,045.4,0.475,726.9,01.19,0.508
2015-07-17 04:07:00,1581E-3,5C000000,-0724,0823,12155,026.4,045.4,0.475,726.9,01.19,0.508
2015-07-17 04:08:00,1711E-3,5C000000,-0724,0823,12022,026.4,045.4,0.475,727.0,01.19,0.508
2015-07-17 04:09:00,1667E-3,5C000000,-0724,0823,12424,026.4,045.4,0.476,727.0,01.19,0.508
2015-07-17 04:10:00,1649E-3,5C000000,-0724,0823,12369,026.5,045.4,0.475,727.0,01.19,0.508
2015-07-17 04:11:00,1717E-3,5C000000,-0724,0823,12234,026.4,045.4,0.475,727.0,01.19,0.508
2015-07-17 04:12:00,1582E-3,5C000000,-0724,0822,12266,026.4,045.4,0.475,727.0,01.19,0.508
2015-07-17 04:13:00,1690E-3,5C000000,-0724,0823,12161,026.4,045.4,0.475,727.0,01.19,0.508
2015-07-17 04:14:00,1518E-3,5C000000,-0724,0823,12265,026.4,045.4,0.475,726.9,01.19,0.508
2015-07-17 04:15:00,1594E-3,5C000000,-0724,0822,12381,026.4,045.4,0.475,726.9,01.19,0.508
2015-07-17 04:16:00,1632E-3,5C000000,-0724,0822,12246,026.5,045.4,0.475,726.9,01.19,0.508
2015-07-17 04:17:00,1843E-3,5C000000,-0724,0822,12228,026.5,045.4,0.475,726.8,01.19,0.508
2015-07-17 04:18:00,1596E-3,5C000000,-0724,0822,12189,026.5,045.4,0.475,726.8,01.19,0.508
2015-07-17 04:19:00,1643E-3,5C000000,-0724,0822,12301,026.5,045.4,0.475,726.9,01.19,0.508
2015-07-17 04:20:00,1663E-3,5C000000,-0724,0823,12280,026.5,045.4,0.475,726.8,01.19,0.508